Weather History for EGWU - April, 2013

Change the Weather History Date:

Friday, April 19, 2013

  Actual Average Record
Temperature  
Mean Temperature 50 °F -  
Max Temperature 56 °F 60 °F 75 °F (2011)
Min Temperature 42 °F 44 °F 33 °F (1999)
Degree Days  
Heating Degree Days 16    
Moisture  
Dew Point 36 °F    
Average Humidity 59    
Maximum Humidity 87    
Minimum Humidity 27    
Precipitation  
Precipitation 0.00 in - - ()
Sea Level Pressure  
Sea Level Pressure 30.29 in    
Wind  
Wind Speed 10 mph ()    
Max Wind Speed 15 mph    
Max Gust Speed -    
Visibility 7.3 miles    
Events      
Averages and records for this station are not official NWS values.
T = Trace of Precipitation, MM = Missing Value Source: Averaged Metar Reports

Daily Weather History Graph

Daily Weather History Graph

Search for Another Location

Airport or City:

Trip Planner

Search our weather history database for the weather conditions in past years. The results will help you decide how hot, cold, wet, or windy it might be!

Date:

Astronomy

Apr. 19, 2013 Rise Set
Actual Time 5:57 AM BST 8:05 PM BST
Civil Twilight 5:21 AM BST 8:41 PM BST
Nautical Twilight 4:36 AM BST 9:27 PM BST
Astronomical Twilight 3:44 AM BST 10:19 PM BST
Moon 12:51 PM BST (4/19) 2:49 AM BST (4/19)
Length of Visible Light 15h 20m
Length of Day
14h 08m
First Quarter, 59% of the Moon is Illuminated
Apr 19
First Quarter
Apr 25
Full
May 2
Last Quarter
May 10
New
May 18
First Quarter

Hourly Weather History & Observations

Time (BST) Temp. Windchill Dew Point Humidity Pressure Visibility Wind Dir Wind Speed Gust Speed Precip Events Conditions
12:50 AM 45 °F - 36 °F 61% 30.10 in 17 mi WSW 12.7 mph - -  
12:50 AM 44.6 °F 38.4 °F 35.6 °F 71% 30.09 in 6.2 mi WSW 12.7 mph - N/A   Unknown
1:50 AM 44.6 °F 40.7 °F 37.4 °F 76% 30.09 in 6.2 mi SW 6.9 mph - N/A   Unknown
2:50 AM 44.6 °F 39.2 °F 37.4 °F 76% 30.09 in 6.2 mi WSW 10.4 mph - N/A   Mostly Cloudy
3:50 AM 45 °F - 38 °F 68% 30.12 in 17 mi WSW 10.4 mph - -   Scattered Clouds
3:50 AM 44.6 °F 39.2 °F 37.4 °F 76% 30.09 in 6.2 mi WSW 10.4 mph - N/A   Mostly Cloudy
4:50 AM 46.4 °F 42.4 °F 39.2 °F 76% 30.12 in 6.2 mi West 8.1 mph - N/A   Mostly Cloudy
5:50 AM 46.4 °F 41.9 °F 39.2 °F 76% 30.15 in 6.2 mi West 9.2 mph - N/A   Mostly Cloudy
6:50 AM 47 °F - 40 °F 68% 30.19 in 22 mi West 12.7 mph - -   Mostly Cloudy
6:50 AM 46.4 °F 40.7 °F 39.2 °F 76% 30.18 in 6.2 mi West 12.7 mph - N/A   Mostly Cloudy
7:50 AM 48.2 °F - 39.2 °F 71% 30.21 in 6.2 mi WNW 10.4 mph - N/A   Mostly Cloudy
8:50 AM 48.2 °F - 39.2 °F 71% 30.24 in 6.2 mi NW 15.0 mph - N/A   Mostly Cloudy
9:50 AM 50 °F - 34 °F 42% 30.28 in 28 mi North 12.7 mph - -   Partly Cloudy
9:50 AM 50.0 °F - 33.8 °F 54% 30.27 in 6.2 mi North 12.7 mph - N/A   Mostly Cloudy
10:50 AM 51.8 °F - 32.0 °F 47% 30.30 in 6.2 mi NNW 15.0 mph - N/A   Mostly Cloudy
11:50 AM 51.8 °F - 32.0 °F 47% 30.30 in 6.2 mi NNW 15.0 mph - N/A   Mostly Cloudy
12:50 PM 52 °F - 31 °F 33% 30.34 in 28 mi NNW 13.8 mph - -   Partly Cloudy
12:50 PM 51.8 °F - 32.0 °F 47% 30.33 in 6.2 mi NNW 13.8 mph - N/A   Mostly Cloudy
1:50 PM 53.6 °F - 33.8 °F 47% 30.33 in 6.2 mi NNW 15.0 mph - N/A   Mostly Cloudy
2:50 PM 55.4 °F - 32.0 °F 41% 30.33 in 6.2 mi NNW 10.4 mph - N/A   Scattered Clouds
3:50 PM 54 °F - 30 °F 27% 30.37 in 25 mi North 13.8 mph - -   Partly Cloudy
3:50 PM 53.6 °F - 30.2 °F 41% 30.36 in - North 13.8 mph - N/A   Clear
4:50 PM 55.4 °F - 33.8 °F 44% 30.36 in 6.2 mi NNE 10.4 mph - N/A   Scattered Clouds
5:50 PM 53.6 °F - 33.8 °F 47% 30.39 in 6.2 mi NNE 10.4 mph - N/A   Mostly Cloudy
6:50 PM 52 °F - 35 °F 40% 30.43 in 25 mi NE 12.7 mph - -   Scattered Clouds
6:50 PM 51.8 °F - 35.6 °F 54% 30.42 in - NE 12.7 mph - N/A   Clear
7:50 PM 50.0 °F - 35.6 °F 58% 30.45 in - NE 10.4 mph - N/A   Clear
8:50 PM 48.2 °F - 37.4 °F 66% 30.45 in - NE 6.9 mph - N/A   Clear
9:50 PM 46 °F - 36 °F 59% 30.49 in 22 mi NE 5.8 mph - -   Scattered Clouds
9:50 PM 46.4 °F 43.5 °F 35.6 °F 66% 30.48 in - NE 5.8 mph - N/A   Clear
10:50 PM 44.6 °F 41.4 °F 37.4 °F 76% 30.48 in - East 5.8 mph - N/A   Clear
11:50 PM 42.8 °F 40.1 °F 39.2 °F 87% 30.51 in 6.2 mi East 4.6 mph - N/A   Unknown